GFSNW_925_spd_102.txt.gz
Wind_Speed
11 12 13 12 12 12 8 2 3 1 3 1 2 3 4 6 11 12 13 9 13 3 6 7 4 4 3 5 8 9 8 5 4 5 4 4 4 4 6 4 2 3 4 5
15 13 13 11 12 7 3 2 3 7 5 1 3 5 7 6 13 14 6 8 16 8 5 5 8 3 9 5 4 6 8 5 4 4 3 7 6 6 5 4 4 5 3 3
14 11 10 11 11 5 4 2 3 3 1 2 4 4 5 6 6 11 7 10 12 1 2 2 6 5 3 5 5 13 6 5 3 2 2 1 2 6 8 4 3 1 12 6
12 11 10 9 10 5 6 2 3 3 2 3 2 4 5 11 9 5 7 7 10 10 4 4 3 6 6 10 7 4 5 3 5 6 2 3 3 3 4 3 1 1 3 1
12 11 11 11 10 7 6 2 2 2 3 5 6 5 4 10 14 3 10 7 9 5 4 3 4 6 5 4 5 6 3 3 2 2 6 6 2 4 3 4 4 10 9 0
12 13 13 13 11 13 4 4 6 1 2 2 2 3 4 15 11 10 11 9 5 5 2 1 6 6 6 8 3 3 6 4 4 1 8 4 3 2 5 5 9 13 3 2
14 14 15 16 15 17 12 5 2 2 3 2 2 9 13 11 12 8 11 9 4 4 4 5 4 5 6 6 6 3 2 3 3 3 5 0 3 10 2 12 9 11 10 7
16 16 17 14 16 18 21 14 2 2 3 2 4 8 9 10 8 4 4 7 8 1 4 3 5 4 3 6 8 7 6 2 1 1 1 6 4 5 4 3 5 5 8 7
16 16 16 14 14 15 19 19 17 3 2 4 4 4 4 4 5 6 4 9 5 1 2 3 1 3 3 3 5 12 6 4 3 2 1 3 2 5 6 4 3 2 7 6
16 15 15 15 13 14 17 8 19 5 4 4 3 3 3 3 3 3 5 11 7 4 2 1 2 3 1 4 4 1 4 1 7 2 1 6 6 6 6 3 4 1 5 7
17 16 15 16 15 15 16 13 15 13 3 5 5 6 4 5 2 1 5 5 5 3 2 2 3 2 2 3 2 2 7 6 3 3 2 6 4 2 1 3 3 4 5 5
17 17 17 17 17 15 14 10 16 21 3 5 12 15 19 14 9 3 2 3 2 1 3 3 3 3 2 3 3 1 4 5 5 6 6 4 5 4 2 4 2 5 6 4
19 20 19 19 19 18 18 16 14 16 4 8 10 9 27 30 32 24 2 2 3 3 3 2 3 3 0 2 3 4 6 4 1 4 3 3 4 5 4 3 8 6 7 8
22 22 20 21 21 20 18 21 20 18 1 3 5 13 11 17 18 21 25 11 4 4 2 2 3 3 3 2 3 3 4 2 3 3 3 1 4 4 3 10 10 11 11 10
24 23 23 23 21 19 19 23 25 26 6 3 3 12 16 18 16 20 24 10 5 3 2 2 3 3 3 3 3 2 4 4 2 1 7 3 2 9 9 11 6 7 9 9
26 25 25 23 21 19 14 4 23 29 30 3 2 5 4 3 16 15 7 8 4 3 3 3 2 4 1 2 3 2 4 5 3 4 5 9 13 14 11 7 7 7 9 8
27 25 22 21 21 21 5 3 3 25 27 3 2 4 3 5 6 1 2 6 3 3 3 2 2 2 1 2 3 8 5 10 13 14 6 10 14 8 12 12 10 14 13 12
26 24 20 18 19 18 10 10 3 24 8 2 2 4 3 1 2 1 1 3 2 1 3 1 2 2 2 3 1 9 9 9 11 11 10 9 7 11 13 12 10 6 6 5
29 22 19 11 7 4 5 14 8 14 3 3 2 3 3 2 1 1 1 2 2 2 4 3 2 2 4 2 7 10 11 8 8 7 11 12 13 12 11 10 11 7 6 5
28 20 5 3 8 15 18 6 4 2 2 2 4 3 2 3 3 2 2 3 3 3 4 3 5 2 9 10 10 9 11 11 11 4 8 10 10 10 10 9 8 7 5 4
8 3 3 9 28 5 1 3 3 3 3 4 4 7 3 3 3 3 3 3 4 4 4 8 4 2 3 8 9 10 11 10 10 8 8 8 7 8 8 7 8 7 7 5
12 15 15 8 3 2 3 3 3 5 5 4 4 4 4 2 3 2 3 3 3 4 6 3 2 2 7 7 8 9 8 8 9 11 9 10 10 10 8 7 7 7 6 7
21 5 3 3 1 3 5 6 3 3 2 3 2 1 3 2 1 1 2 2 4 3 1 2 2 5 5 5 6 7 9 7 8 8 9 8 9 11 11 8 8 6 8 8
3 4 6 3 3 4 2 1 2 1 2 2 3 2 2 1 2 1 1 3 1 2 2 2 2 4 4 4 5 5 6 7 7 5 8 9 9 9 11 10 8 8 9 10
3 3 3 2 2 2 1 0 2 3 2 2 2 3 2 1 2 2 1 1 3 3 1 2 2 4 4 3 3 4 5 5 5 7 8 9 10 10 11 11 10 11 14 16
3 6 2 2 3 3 3 3 2 3 4 2 1 2 3 3 2 2 3 2 1 1 2 2 3 3 3 3 3 2 4 7 8 9 9 10 11 11 11 14 15 15 16 16
4 3 3 2 3 3 2 3 3 3 2 1 2 2 1 2 3 3 3 1 1 3 3 2 2 2 2 2 5 5 6 6 9 12 12 12 12 12 13 11 14 17 17 18

GFSNW_925_spd_105.txt.gz
Wind_Speed
11 9 9 9 8 8 3 1 2 6 4 2 2 3 4 4 9 9 13 6 8 9 14 6 7 5 4 5 7 2 4 1 3 6 4 1 2 8 13 5 5 3 4 5
12 12 10 9 6 4 2 0 2 3 3 2 2 5 5 11 13 6 5 5 6 17 13 3 7 9 9 3 1 4 3 3 3 5 2 4 4 5 2 4 3 5 6 3
12 13 11 8 5 2 5 1 2 3 1 1 2 3 5 5 9 12 5 7 6 8 4 2 4 5 7 9 4 1 5 4 4 2 9 1 4 4 5 5 4 1 4 6
14 14 11 8 4 5 7 2 2 3 2 2 3 3 4 9 9 5 5 5 11 4 4 4 4 4 6 7 7 1 3 5 7 17 11 4 3 8 5 6 4 4 5 6
16 15 12 9 7 7 5 3 2 1 3 3 3 3 3 7 14 4 5 8 14 8 3 3 3 2 1 2 6 1 3 4 4 15 9 4 4 5 3 2 2 3 10 9
16 16 13 11 9 12 4 6 2 1 4 2 1 3 2 8 12 8 6 12 9 7 4 6 10 9 5 3 2 5 3 4 3 6 10 10 1 2 4 6 6 5 8 5
18 16 14 13 13 17 9 5 3 2 2 3 3 5 8 8 11 10 10 7 3 5 13 8 7 6 7 6 10 6 2 2 3 3 5 4 2 6 6 9 4 7 8 9
18 17 16 15 14 16 20 11 5 2 2 4 6 7 7 6 7 5 4 4 7 9 5 4 5 4 2 4 7 5 4 3 1 1 1 6 1 2 3 3 3 4 7 9
18 18 18 16 15 13 22 21 14 3 3 5 4 3 3 4 3 5 4 5 8 3 2 3 2 3 3 3 5 4 4 1 2 2 1 3 4 2 2 1 4 3 4 3
20 18 16 16 14 11 20 10 22 6 3 4 4 4 3 2 2 3 4 8 7 4 3 1 1 3 2 2 3 2 1 1 6 2 2 6 7 7 6 4 5 5 5 5
20 21 17 15 14 12 18 14 15 15 3 5 5 4 3 3 1 2 4 5 4 3 4 2 3 2 3 2 2 6 3 3 3 3 2 7 3 4 1 3 3 6 3 3
20 21 18 15 13 13 16 7 15 21 4 5 6 14 18 19 12 2 3 3 1 2 2 3 3 3 2 1 3 2 2 5 2 7 6 5 3 3 2 3 3 3 6 4
21 19 17 16 14 15 16 11 12 12 2 5 9 11 30 27 31 24 3 2 4 2 2 1 2 4 2 2 3 2 4 5 4 3 3 1 3 5 2 6 7 7 7 7
21 19 15 15 15 16 16 17 16 14 1 3 5 8 11 13 20 29 30 13 3 4 2 2 3 2 3 3 6 3 4 6 4 3 4 6 5 9 2 12 8 10 10 9
21 18 17 16 16 16 16 18 20 22 5 2 4 13 22 14 21 24 26 15 3 2 2 3 3 3 3 3 3 2 3 4 2 1 5 6 5 10 6 11 7 6 8 9
22 20 19 19 19 17 12 3 19 29 24 2 3 5 4 1 11 15 12 12 4 3 3 3 2 3 0 3 2 4 8 6 11 5 1 8 13 17 14 10 9 11 10 7
22 21 21 20 19 20 7 4 1 17 27 2 2 4 4 5 6 3 2 7 3 3 3 3 2 2 1 2 3 8 11 9 10 8 4 6 14 7 10 9 10 11 11 11
22 21 20 18 19 18 16 31 10 13 9 3 3 4 4 2 2 2 2 3 2 1 3 1 2 1 2 3 0 7 10 8 12 12 12 9 8 10 10 10 8 6 6 6
21 21 17 12 8 6 6 7 14 8 4 2 2 3 3 1 1 2 0 2 2 2 3 3 3 3 4 5 6 8 10 7 9 4 10 11 11 10 10 10 10 7 6 5
20 16 7 3 8 13 16 9 5 2 2 2 4 1 2 3 1 3 2 2 3 3 5 4 3 2 8 8 8 7 8 9 10 7 7 10 10 10 11 10 8 7 5 4
13 4 2 8 26 5 2 3 3 3 3 4 4 7 3 3 3 3 2 3 3 3 4 5 4 2 3 6 7 7 8 8 9 7 6 7 6 7 8 9 9 9 8 5
16 15 16 9 3 2 3 3 3 4 5 3 4 5 4 2 2 3 3 4 4 4 6 3 2 2 4 5 7 7 7 6 7 10 7 7 9 10 7 6 7 8 6 6
21 6 3 3 1 3 6 6 3 4 3 2 2 3 4 1 3 2 2 3 3 4 2 1 2 5 4 5 5 5 7 7 8 8 10 9 8 10 10 8 10 7 9 7
3 4 6 3 3 4 3 1 2 1 0 0 2 2 2 2 3 1 1 2 1 1 3 2 2 4 4 5 4 4 4 5 6 6 8 9 9 8 11 11 10 9 9 9
3 3 3 2 2 2 1 1 2 2 2 1 2 2 2 1 2 1 1 1 2 2 1 1 2 4 4 3 4 4 4 4 4 5 6 8 10 10 11 13 12 11 12 13
3 5 2 2 3 2 2 3 2 3 3 2 1 2 2 1 0 3 2 0 1 1 2 2 2 3 3 3 3 2 2 4 6 8 9 10 12 12 11 15 15 14 14 14
3 3 2 2 3 2 2 3 3 4 2 2 2 2 2 2 3 2 3 1 1 2 3 2 3 2 0 1 3 3 4 6 7 8 8 9 8 10 14 12 13 14 14 15

GFSNW_925_spd_111.txt.gz
Wind_Speed
9 6 5 3 1 1 2 4 2 5 4 3 2 1 3 3 6 4 7 6 9 10 14 7 5 5 6 16 12 14 4 4 6 12 4 1 11 21 11 11 13 7 5 5
10 8 7 4 3 2 4 2 1 2 2 2 1 3 3 4 3 5 3 3 2 10 8 7 8 8 11 10 14 9 7 3 5 5 3 5 6 4 5 15 0 14 9 5
10 11 8 6 5 5 4 2 2 2 1 2 2 1 3 3 4 4 2 4 4 11 9 8 10 11 9 19 16 13 1 4 8 2 3 1 1 3 6 5 12 16 8 7
11 10 9 7 8 9 4 2 2 2 1 1 1 1 3 4 4 3 2 2 8 10 6 13 4 13 19 13 8 12 1 2 6 14 7 1 3 2 3 2 3 13 17 13
13 12 11 10 12 12 2 3 3 2 1 2 2 2 2 2 3 3 4 4 13 13 9 12 19 17 16 10 9 12 8 3 3 3 13 6 1 0 5 3 2 4 6 4
14 15 14 13 15 16 3 3 2 3 1 2 2 3 2 1 7 5 8 10 15 11 11 12 20 18 19 17 16 9 6 7 9 5 6 7 5 2 1 2 4 3 5 4
15 16 16 15 18 20 8 6 5 3 3 4 4 3 2 8 8 10 14 13 6 5 15 17 13 10 14 12 13 10 7 9 4 6 10 3 1 5 6 2 11 7 6 10
18 17 15 16 20 20 15 9 5 3 2 5 6 9 7 7 8 9 10 11 5 10 7 5 8 4 3 3 1 6 12 3 4 3 6 4 2 4 2 1 2 1 11 11
21 19 18 18 20 20 21 15 10 3 2 5 4 5 4 4 3 5 3 5 8 3 1 2 3 3 4 4 9 6 5 5 3 4 4 2 1 6 5 3 1 2 12 11
22 20 19 18 19 19 21 8 20 5 2 4 5 4 3 2 2 3 4 7 5 3 3 3 2 2 5 4 6 6 3 1 6 6 4 6 5 12 6 2 3 6 12 9
23 19 19 19 19 19 22 12 15 12 3 4 6 4 5 3 3 4 3 5 0 3 4 3 3 3 3 4 7 6 3 3 1 2 3 6 14 8 4 3 2 4 9 4
24 21 19 18 17 17 21 6 16 20 3 4 3 12 22 19 12 3 2 3 3 2 2 1 3 3 2 5 4 2 3 1 3 4 3 4 9 7 8 6 1 4 7 9
22 22 19 18 18 17 23 13 15 12 2 7 9 10 21 23 30 24 4 3 3 1 1 1 2 5 2 2 3 4 4 6 4 3 1 2 10 7 10 10 12 11 11 11
19 21 20 17 18 17 21 16 16 9 1 3 5 7 10 11 14 24 27 13 2 2 1 2 3 3 2 3 7 9 5 6 5 5 5 6 14 14 10 11 14 13 16 14
19 19 18 17 18 16 19 20 16 19 4 2 4 10 21 19 21 21 22 16 8 4 3 3 3 2 2 2 4 1 4 4 4 3 10 3 7 13 14 12 10 9 16 12
20 17 17 17 18 18 14 2 17 21 19 2 3 4 3 1 12 14 13 13 5 3 3 3 3 4 2 2 3 4 4 4 5 4 4 10 5 14 15 12 9 12 14 9
22 18 17 18 17 20 7 3 2 16 21 2 3 3 2 2 5 3 3 9 3 3 3 3 2 3 0 2 4 5 8 6 6 9 3 5 14 8 11 8 10 13 15 13
21 17 17 17 15 16 15 17 8 20 8 2 3 4 3 5 2 2 3 4 3 4 2 2 3 1 2 4 2 5 9 6 11 9 10 8 7 8 10 13 7 9 8 7
19 18 15 9 5 5 7 6 9 10 5 2 3 2 3 2 2 2 2 3 4 3 4 4 4 3 4 2 3 6 9 7 9 4 9 9 9 10 11 10 10 8 8 6
21 16 5 3 9 10 16 7 4 3 3 3 3 1 3 3 3 2 2 3 4 3 3 4 4 2 8 8 8 7 7 9 10 6 8 9 9 10 9 10 8 8 7 7
9 5 4 5 25 11 3 3 3 4 4 4 4 7 3 2 4 4 2 2 4 3 3 5 3 2 3 7 8 7 7 8 8 7 7 7 7 8 8 9 10 12 11 8
14 10 7 9 4 3 4 4 4 5 5 3 4 4 4 2 3 2 3 3 3 4 6 3 1 2 5 6 6 7 7 8 8 10 9 9 10 10 8 8 10 10 9 8
7 5 4 3 2 4 6 6 3 3 3 4 3 4 3 1 3 3 3 5 5 6 4 2 2 5 4 5 5 6 8 9 9 11 12 12 11 12 12 9 10 7 8 7
3 4 6 5 4 4 4 2 2 1 1 4 3 2 3 2 3 2 3 1 1 2 3 2 2 5 5 5 5 5 6 7 8 9 10 11 12 11 11 12 10 9 8 7
2 2 4 3 2 2 1 2 3 2 1 0 2 1 2 2 3 1 1 0 2 2 2 2 3 5 4 4 5 5 5 5 6 7 8 10 9 8 10 13 12 10 11 11
3 5 2 3 3 1 2 3 2 3 3 1 1 1 2 2 0 1 2 1 1 2 2 3 3 5 5 4 4 4 4 5 6 8 8 9 11 11 9 12 13 12 10 12
2 1 3 2 3 3 1 3 3 5 2 1 1 2 2 2 2 2 2 2 2 5 4 3 4 4 3 3 3 3 4 5 5 4 5 5 5 5 5 8 7 8 9 11

GFSNW_925_spd_114.txt.gz
Wind_Speed
13 10 10 8 6 3 3 2 3 4 4 2 1 3 2 2 2 1 3 6 9 11 13 16 14 8 14 17 20 24 3 6 8 14 4 5 22 21 24 14 23 16 12 7
14 13 12 10 7 6 4 2 3 1 2 3 4 3 3 4 3 2 2 4 3 10 14 9 8 15 18 15 23 11 11 6 12 6 6 7 4 18 19 21 15 19 15 10
16 15 13 11 9 8 4 2 3 3 1 1 2 2 4 2 3 6 5 8 8 12 13 10 13 20 12 18 20 14 11 6 6 8 16 2 6 2 9 19 15 16 15 15
18 17 15 13 12 11 4 0 2 1 5 5 6 4 3 4 2 2 5 5 5 11 7 19 10 20 24 16 10 10 14 9 12 15 19 11 2 12 10 10 20 17 16 15
19 18 17 14 15 14 3 3 3 3 4 6 9 5 4 5 3 3 5 9 9 14 15 15 20 23 21 13 13 16 13 8 16 18 9 12 3 4 3 12 14 16 12 19
21 20 19 19 19 16 4 3 2 2 5 7 6 6 6 3 2 5 8 8 14 15 16 17 23 23 24 22 21 18 9 7 11 7 14 5 4 9 2 3 3 4 10 3
26 21 22 21 22 20 6 7 5 3 4 6 7 4 5 7 8 11 12 13 14 10 19 24 21 17 16 14 12 11 8 10 5 10 11 3 4 10 3 5 4 5 5 6
27 24 22 21 21 24 10 8 6 3 4 6 7 9 9 9 10 12 13 12 7 13 14 11 10 6 4 2 1 3 9 7 5 5 8 2 5 9 9 8 6 11 4 9
27 23 22 20 21 23 14 11 8 3 2 5 8 7 8 9 8 7 6 6 9 5 4 4 6 4 6 3 6 3 2 6 5 6 5 3 5 15 16 4 3 6 6 10
26 25 23 20 20 24 18 9 13 6 4 6 5 5 3 3 3 5 6 5 4 3 3 5 4 3 7 4 7 8 7 3 4 5 3 6 14 20 15 4 8 12 9 12
26 26 23 21 22 24 20 12 15 11 4 6 6 7 10 9 6 7 2 5 2 3 3 3 3 3 4 5 8 8 5 5 2 4 3 4 20 10 10 12 15 7 11 5
28 27 23 22 21 25 22 7 12 12 2 4 3 10 18 19 15 8 3 5 3 3 4 2 3 6 4 7 4 1 3 6 6 5 6 12 13 12 13 14 4 8 7 3
29 28 24 21 22 23 23 11 11 9 2 6 11 11 15 19 23 17 5 3 4 1 2 3 2 4 4 5 5 6 4 9 3 7 4 10 12 14 13 12 13 10 12 10
29 27 24 22 21 21 22 13 14 9 2 3 3 4 10 9 14 20 25 17 3 2 1 3 4 4 4 6 9 10 6 6 11 10 9 10 14 14 13 12 12 13 13 14
29 26 26 21 19 20 21 12 13 13 6 2 4 14 16 16 15 16 19 17 11 6 3 3 5 5 6 6 5 5 2 3 4 3 8 2 7 11 11 11 11 11 10 13
27 28 25 23 21 23 12 3 14 15 13 3 3 3 5 1 10 14 14 13 7 3 3 4 4 8 4 3 3 6 4 3 4 4 4 9 6 13 10 11 9 9 8 11
27 27 24 22 24 23 6 1 3 18 14 2 3 3 3 5 7 5 4 9 3 3 3 4 7 7 4 4 10 2 6 6 7 10 7 2 11 7 11 7 7 10 10 12
27 24 22 22 24 12 6 6 5 19 5 3 3 3 3 8 4 4 5 5 4 5 4 3 5 3 4 4 5 5 6 2 9 6 7 4 5 7 10 12 7 7 8 7
26 24 23 19 7 5 6 9 6 6 4 2 3 3 1 4 3 2 4 5 4 4 5 4 4 4 5 3 3 5 7 5 7 2 6 6 7 8 9 9 9 7 7 8
28 25 5 3 7 13 16 8 4 4 3 3 3 4 3 4 4 4 2 4 4 4 6 4 4 4 7 7 6 5 6 6 8 4 6 8 8 8 8 8 7 8 7 7
12 4 3 5 23 8 3 4 5 5 4 5 4 10 9 5 5 4 3 2 2 3 4 4 4 3 3 4 5 6 6 6 7 5 4 6 6 7 7 6 8 9 10 8
13 10 10 11 4 4 6 6 4 6 5 5 4 4 5 4 4 5 3 3 4 4 7 3 2 3 4 4 5 6 7 7 6 7 6 7 8 8 6 7 8 8 8 7
9 3 3 4 3 5 5 8 4 4 4 5 5 4 4 4 4 3 3 5 4 5 4 1 3 6 4 4 3 5 8 9 8 8 8 8 7 8 9 8 10 8 6 7
2 5 6 4 4 5 3 5 3 3 3 6 6 4 3 3 3 2 3 1 1 4 5 2 3 6 5 4 4 4 6 7 7 8 8 7 7 8 8 8 7 6 7 8
2 3 2 3 3 3 3 4 4 3 2 4 3 2 3 3 3 3 3 3 2 3 3 3 4 5 4 4 4 4 4 4 5 6 6 6 7 7 9 10 10 9 8 9
2 4 2 2 3 3 2 3 4 3 2 0 1 2 3 4 2 3 1 2 1 3 3 4 5 5 4 3 3 4 4 5 5 6 6 6 6 7 7 8 9 9 9 9
1 2 3 2 3 3 3 2 2 3 2 2 2 4 1 1 3 3 2 2 3 6 5 4 5 5 4 3 3 3 3 4 5 5 6 6 5 4 5 7 8 7 7 7

GFSNW_925_spd_117.txt.gz
Wind_Speed
17 13 11 11 8 6 6 3 3 4 4 4 2 3 3 1 4 4 4 5 10 9 10 15 18 15 11 19 18 22 5 8 14 31 14 16 21 21 23 11 21 18 16 14
18 15 13 12 11 11 3 3 3 3 4 3 5 4 5 4 6 4 3 5 5 9 12 14 12 17 17 12 21 14 10 7 13 20 8 18 12 16 19 19 17 21 16 15
17 16 15 14 12 10 6 2 3 3 3 3 6 4 5 6 5 7 8 9 9 9 11 14 12 21 13 18 18 10 11 11 17 15 19 14 16 23 15 16 15 18 18 18
18 19 17 15 13 11 7 2 4 4 4 6 8 7 5 8 5 7 6 9 11 8 11 17 17 20 22 20 3 9 14 17 17 21 25 19 18 13 13 12 15 17 18 19
21 20 20 18 15 13 9 4 3 4 2 6 9 6 6 9 7 6 10 10 12 9 14 17 21 22 20 24 14 17 15 12 18 22 13 17 19 8 13 15 18 19 15 21
23 22 23 20 20 18 7 5 2 4 6 8 8 8 8 6 5 8 10 10 10 13 16 17 21 22 25 24 22 19 9 10 15 15 16 19 6 12 5 7 10 13 16 12
25 24 23 23 23 22 7 7 4 3 5 8 9 4 5 9 10 11 9 10 13 15 17 21 21 23 23 20 14 11 10 13 11 12 14 3 8 12 8 10 4 7 7 19
31 26 26 24 24 24 11 5 6 3 6 6 8 6 8 8 9 12 13 12 11 9 15 14 13 13 9 11 12 7 7 8 6 6 11 2 4 14 17 14 11 14 13 5
31 31 28 25 25 25 14 8 9 4 3 5 7 8 10 9 8 8 10 5 7 10 8 8 9 10 13 4 6 2 8 8 6 10 7 4 12 20 18 18 2 22 19 8
32 32 28 27 24 24 19 8 11 5 3 6 3 6 6 6 6 6 5 2 6 7 6 9 10 7 4 4 7 9 9 7 7 7 4 4 19 20 22 3 10 16 12 11
33 32 28 27 24 24 23 12 14 11 4 4 4 7 7 6 5 6 3 5 5 6 6 5 4 4 4 5 8 5 5 7 3 6 4 3 24 12 10 12 19 14 2 10
34 31 29 28 23 23 26 7 11 13 6 3 7 8 12 14 14 6 2 6 0 3 4 3 4 6 5 11 5 7 2 4 5 6 11 14 15 14 16 14 14 13 13 7
36 31 30 26 23 24 27 10 11 6 2 7 12 12 17 18 18 13 8 5 3 1 1 4 3 4 5 6 5 8 10 8 4 14 6 12 14 15 15 13 13 13 15 12
35 32 30 24 25 26 27 12 12 9 3 3 3 4 10 9 12 16 19 15 3 3 3 4 4 4 7 5 10 9 5 8 11 11 10 12 15 13 14 13 13 12 14 14
33 32 28 26 26 25 23 14 12 14 7 2 4 8 14 14 13 14 16 16 11 7 3 3 5 7 7 7 7 6 3 1 4 5 8 7 8 11 14 12 11 11 11 11
32 31 27 28 27 24 13 2 12 15 11 2 3 2 5 6 9 16 13 13 6 3 3 3 4 12 6 4 4 5 5 5 2 3 9 3 10 7 13 8 9 9 8 10
32 30 28 27 26 27 9 1 3 19 11 2 3 3 4 6 9 5 4 7 3 3 3 5 9 10 4 3 7 9 7 3 3 4 7 2 8 6 10 11 6 4 7 10
32 29 27 24 24 17 9 2 4 15 5 3 3 3 6 11 3 3 4 3 3 4 4 4 6 6 4 4 7 7 5 4 3 5 4 3 6 6 7 11 12 7 8 9
29 28 24 19 12 5 8 9 15 11 2 2 4 3 4 6 4 2 4 4 4 4 6 7 5 6 5 4 5 5 5 4 6 7 3 8 8 9 10 9 10 10 9 9
32 30 6 3 11 14 19 6 5 4 3 3 3 7 3 6 5 6 3 4 4 4 7 5 5 8 8 6 5 4 4 5 7 6 5 8 7 8 10 9 9 8 9 11
17 5 3 17 24 10 5 3 4 5 4 5 5 10 7 5 4 4 4 2 3 3 5 5 4 3 4 4 5 4 5 6 6 6 5 6 7 7 8 8 10 12 12 11
13 12 14 13 5 3 5 5 5 6 5 8 5 4 6 4 3 3 3 3 3 5 7 3 2 4 5 5 5 5 6 6 6 8 7 8 9 10 9 9 9 9 9 11
14 4 4 3 5 7 6 10 4 5 5 5 6 4 3 4 4 3 2 5 5 4 4 1 4 7 5 4 4 5 7 7 7 8 9 9 9 11 12 10 11 11 10 11
4 5 6 6 6 5 4 6 7 3 4 7 6 4 4 4 4 2 4 4 3 3 4 3 4 7 6 5 4 4 5 6 6 7 8 8 7 8 9 10 11 10 11 11
2 2 5 5 3 5 4 4 4 3 2 6 4 3 3 4 3 3 4 4 2 2 3 2 6 6 5 4 4 4 3 3 4 5 6 6 6 6 7 8 8 9 8 9
2 3 2 2 4 4 3 4 4 1 1 2 1 2 3 5 3 3 1 4 3 3 4 5 6 6 5 4 3 3 3 4 4 5 6 6 5 6 6 6 7 7 7 8
3 1 2 4 3 5 4 3 3 2 2 3 2 4 1 1 2 2 3 3 4 6 5 6 7 6 5 4 4 3 2 3 4 4 5 6 5 4 5 6 7 6 6 5

GFSNW_925_spd_123.txt.gz
Wind_Speed
18 16 14 9 10 7 5 2 2 4 4 2 3 3 3 2 10 4 1 1 1 4 3 2 4 4 4 3 2 6 1 4 8 23 22 11 3 13 6 5 4 7 5 12
18 17 14 12 10 9 2 2 3 2 2 3 2 4 4 2 2 5 5 4 4 3 2 4 3 6 8 10 6 1 3 4 7 15 3 1 16 21 18 13 7 6 7 8
19 16 11 11 9 7 1 2 3 1 1 2 2 2 4 5 2 4 4 1 5 4 5 6 5 9 5 10 10 4 2 4 2 8 16 18 23 28 24 12 5 6 13 12
19 16 13 12 10 8 3 1 1 4 2 2 3 3 2 4 4 3 2 2 7 6 4 5 6 8 10 14 13 7 4 3 11 16 19 22 23 18 20 19 15 8 9 9
19 17 15 13 11 9 2 2 1 4 1 2 6 3 2 6 5 6 4 3 6 6 4 4 6 8 7 5 10 3 7 5 11 21 17 19 19 9 18 14 19 13 15 4
19 17 16 16 13 10 4 2 2 3 3 2 4 4 4 4 2 6 5 4 5 6 6 6 6 6 10 13 16 21 5 4 6 16 16 20 2 10 16 5 20 17 15 15
19 18 19 17 15 15 7 6 3 2 3 2 5 6 1 2 2 2 4 5 4 4 7 7 9 13 16 19 21 15 16 13 6 9 12 4 6 12 18 12 20 15 17 18
22 19 19 17 16 14 7 7 5 3 1 2 6 7 5 3 5 3 2 6 6 3 6 4 6 5 4 5 5 8 4 5 3 2 5 11 17 17 19 12 8 20 17 17
23 19 18 17 14 11 8 4 7 1 2 2 8 6 7 3 1 4 7 7 8 5 1 1 2 3 4 4 8 4 3 10 4 2 5 1 9 21 25 16 4 24 19 16
25 22 18 16 15 12 10 2 1 3 2 3 5 4 3 2 1 1 3 3 2 3 2 1 3 4 4 3 6 6 5 4 2 3 2 3 17 17 16 9 7 19 16 10
26 24 22 18 16 14 12 6 2 1 1 5 6 7 5 5 4 3 4 4 5 3 1 2 3 2 3 3 3 3 3 5 3 4 4 4 20 6 7 7 8 10 12 14
28 26 23 19 19 15 14 2 7 3 1 3 8 12 12 8 4 3 4 1 1 0 1 2 3 3 3 3 2 4 2 3 1 3 3 3 6 7 8 8 8 10 11 11
27 26 22 23 21 17 19 8 3 4 1 4 1 6 15 10 9 5 3 3 3 4 2 2 2 1 1 1 2 0 1 3 2 2 5 3 8 8 10 7 9 10 11 12
29 25 23 25 21 19 19 12 9 4 2 2 4 11 13 15 15 12 10 5 4 2 2 1 1 1 2 2 4 2 3 2 2 2 3 3 6 10 10 9 8 10 9 12
26 25 29 25 21 18 15 12 8 10 1 1 3 14 13 6 11 18 16 11 2 0 1 0 2 3 2 3 2 3 3 5 3 4 2 1 2 5 6 9 8 7 8 9
28 30 34 25 22 19 11 1 14 13 5 2 2 4 3 7 16 11 9 8 3 2 3 3 3 5 2 2 3 2 2 4 3 2 0 1 2 2 4 5 9 1 5 9
33 33 30 26 22 22 4 3 1 17 11 2 3 3 3 10 10 7 2 7 2 2 2 2 3 3 2 2 3 4 7 6 3 4 3 1 3 3 1 5 11 10 11 13
28 32 25 22 20 18 1 4 5 18 4 1 0 3 1 0 2 1 2 2 2 1 3 2 3 2 3 3 2 9 8 6 4 5 1 4 1 6 5 12 11 9 10 11
30 29 24 18 7 4 5 8 10 7 2 2 2 2 2 1 2 3 2 2 1 3 3 3 3 3 3 4 8 9 7 5 5 5 10 9 9 8 8 10 9 8 8 9
33 26 6 3 7 13 15 3 2 3 2 1 3 2 1 1 2 1 3 2 3 2 5 3 3 2 6 9 8 8 9 9 8 4 5 7 7 8 8 9 9 9 9 11
12 4 2 12 26 5 2 2 2 2 3 4 4 6 3 1 2 3 3 3 2 3 3 6 3 2 3 7 9 9 9 12 11 12 12 12 8 7 7 8 10 10 9 10
12 18 22 13 3 2 4 4 2 4 5 4 4 4 6 4 4 3 2 3 1 5 3 3 3 3 7 8 10 11 13 13 13 15 11 11 10 9 8 9 9 9 11 11
18 7 3 3 2 2 8 7 3 3 3 2 3 1 4 1 1 1 2 2 4 2 1 2 2 7 6 7 8 10 13 14 13 11 10 9 8 9 9 8 10 10 11 12
3 4 6 4 4 5 5 4 4 5 3 4 4 1 3 2 2 2 3 4 2 3 1 2 3 7 8 8 8 8 7 7 9 8 7 7 6 8 9 10 10 10 10 11
3 3 5 5 3 2 1 2 2 5 2 4 2 2 2 0 2 3 2 2 3 3 2 2 5 7 7 7 7 6 5 6 8 9 8 6 7 7 7 7 8 9 9 9
2 3 2 4 2 2 0 2 3 4 2 1 2 3 3 3 3 3 5 1 3 2 3 4 7 7 7 6 6 9 10 11 9 8 6 4 3 3 2 5 4 7 6 9
2 2 1 1 2 3 2 3 2 5 1 1 2 3 6 1 2 2 3 2 2 6 5 5 6 6 6 9 9 8 9 9 8 5 2 1 2 1 2 4 3 2 3 3

GFSNW_925_spd_129.txt.gz
Wind_Speed
41 40 37 35 36 36 23 8 3 14 16 3 3 4 5 7 4 2 3 3 5 5 5 4 4 4 3 1 2 2 1 3 2 7 10 5 4 7 9 4 8 10 8 14
36 35 35 33 29 32 11 3 3 5 4 4 2 3 4 4 5 3 3 3 3 3 4 5 3 4 4 5 3 3 2 1 3 4 6 4 3 12 12 14 8 8 6 6
31 29 29 29 29 20 6 3 4 2 1 2 5 5 4 5 4 3 5 5 5 4 3 3 4 2 2 2 2 8 4 3 7 6 9 4 6 15 16 11 3 10 7 22
31 27 27 25 24 15 4 1 3 4 4 3 3 3 5 10 4 2 3 3 5 5 3 3 3 3 5 3 3 3 3 3 5 7 12 14 15 14 11 10 7 5 19 19
27 24 23 22 22 12 2 4 4 3 3 6 5 1 3 6 4 4 3 6 7 6 4 3 3 4 2 4 3 3 0 3 1 4 10 11 9 5 10 7 6 12 17 14
23 21 20 20 17 5 2 4 2 5 0 4 5 4 5 6 7 8 5 12 7 7 6 5 6 7 7 6 6 4 3 3 1 4 5 10 4 4 8 9 8 9 9 16
22 21 20 20 10 5 6 3 6 3 2 3 4 6 6 9 4 7 3 6 5 4 5 3 2 3 7 6 8 7 5 4 2 4 4 2 3 2 7 12 2 12 11 16
22 21 18 19 11 12 16 6 4 3 3 3 4 10 10 8 8 5 5 2 4 6 5 3 3 3 2 2 4 8 8 3 1 2 2 2 2 1 6 5 3 13 11 14
21 20 20 19 14 15 18 15 6 6 5 2 3 4 6 5 4 2 3 5 7 6 3 3 2 2 1 2 1 3 5 1 3 1 2 4 4 9 9 5 6 13 15 13
22 21 18 17 15 11 11 12 9 6 4 2 2 3 4 4 4 4 3 3 3 4 2 2 2 3 2 2 1 1 2 1 1 2 3 4 3 13 9 3 5 14 11 10
22 21 18 17 16 13 13 13 15 6 3 2 4 2 4 3 3 4 3 3 4 3 3 2 2 2 1 1 1 1 2 1 1 1 1 5 4 3 4 5 8 10 10 10
22 22 19 17 16 14 13 8 13 13 5 3 2 2 4 5 3 5 3 3 2 3 3 1 2 1 2 3 2 3 1 4 3 5 4 1 2 0 4 6 6 7 8 8
22 21 19 17 14 12 10 13 8 8 3 3 3 3 2 5 3 5 4 1 3 3 3 3 2 1 3 2 3 1 2 2 2 0 3 4 3 1 3 6 4 6 8 8
23 20 19 16 14 14 14 11 9 7 4 3 2 4 2 4 10 4 7 9 6 6 3 2 2 2 3 2 2 3 5 1 4 4 1 4 4 1 3 6 5 4 5 8
23 21 20 16 17 16 15 15 11 10 5 3 1 5 4 7 13 10 12 12 4 2 2 2 2 1 1 0 2 3 4 6 4 5 3 4 3 4 1 5 7 3 6 7
28 25 22 20 19 18 12 3 1 4 5 3 2 4 4 5 13 13 9 8 3 2 3 2 2 3 3 2 2 3 3 3 5 3 4 4 4 5 2 2 3 5 6 8
30 24 23 23 20 13 6 4 3 10 4 3 2 2 3 3 6 3 3 3 2 2 2 2 2 2 4 2 3 3 6 4 3 2 4 1 2 3 3 4 5 7 8 8
29 28 28 25 18 12 6 5 11 13 7 4 3 1 2 4 2 2 1 2 1 0 2 1 2 0 1 4 6 3 5 7 6 2 5 4 8 8 7 7 4 4 5 7
33 34 30 21 6 3 5 14 16 6 4 3 2 3 3 2 2 2 2 2 1 1 2 2 3 2 4 2 2 3 7 4 9 8 9 8 8 6 5 4 5 3 4 6
46 34 7 2 5 23 16 4 3 4 3 2 2 1 1 3 1 0 2 1 2 1 4 2 2 3 5 5 7 8 7 7 5 3 3 3 4 3 2 3 4 4 5 6
12 3 2 14 20 4 3 2 3 1 2 2 3 4 3 2 3 3 2 3 1 1 3 4 3 2 3 6 10 9 11 11 10 10 9 7 5 2 1 2 4 5 7 7
12 19 18 6 3 3 4 2 1 2 3 3 4 4 3 3 2 2 1 3 1 3 3 2 3 0 8 8 8 7 8 9 9 8 8 7 6 5 4 3 4 6 6 8
24 6 3 3 0 4 6 7 4 2 3 3 3 1 4 1 1 2 3 3 4 1 1 3 2 5 5 6 7 6 7 8 8 8 8 8 8 7 6 5 6 5 7 8
3 3 5 4 4 4 4 4 4 4 3 4 4 2 3 2 3 2 3 3 1 2 1 4 4 7 8 5 5 6 5 6 7 6 7 7 7 7 8 8 7 6 6 7
3 3 4 4 2 1 2 2 1 1 2 4 3 2 2 1 3 2 2 2 3 4 3 3 3 8 7 6 5 5 5 6 6 6 7 6 5 6 6 7 6 8 7 9
3 4 4 2 3 2 3 3 2 0 3 2 2 2 2 2 3 3 5 5 5 3 2 3 7 7 6 6 5 8 9 8 7 6 5 3 2 3 3 3 4 5 7 9
3 3 2 2 3 3 1 1 3 1 2 3 2 5 6 2 2 4 2 4 3 4 5 2 4 6 6 8 10 11 9 8 7 5 2 3 2 2 4 4 2 3 4 4

GFSNW_925_spd_132.txt.gz
Wind_Speed
71 70 66 64 63 54 37 8 6 24 27 6 3 4 5 5 5 4 4 3 5 4 4 4 2 5 4 2 5 3 1 4 1 6 6 5 4 4 3 1 3 5 5 7
63 62 61 60 64 46 32 7 4 10 4 6 9 4 5 3 4 3 4 3 2 3 4 5 4 5 3 4 3 6 5 1 2 5 4 3 1 2 0 6 7 3 5 7
43 51 55 59 50 37 21 4 5 2 2 2 13 6 5 5 6 5 5 4 4 6 4 4 5 4 2 1 3 8 5 3 6 6 6 3 4 6 5 2 4 5 7 20
36 36 42 48 43 22 8 2 4 6 9 3 4 5 6 11 5 3 4 3 3 7 4 3 4 3 3 3 7 4 4 3 4 6 8 5 8 6 5 0 8 3 11 18
32 33 35 35 22 12 4 4 5 3 13 9 6 2 5 9 6 4 4 7 7 5 5 5 6 6 2 3 3 3 2 2 3 3 9 6 3 2 4 5 3 6 13 11
29 30 30 23 14 5 5 3 4 5 3 4 4 4 5 8 8 6 4 14 6 7 6 6 7 4 4 6 6 3 3 2 2 3 2 3 1 4 5 3 2 4 4 10
25 25 24 17 10 3 2 3 3 5 3 3 4 4 6 11 4 8 7 7 6 3 7 6 6 4 1 3 4 5 4 3 1 2 4 1 4 5 2 4 3 5 9 13
24 23 23 14 5 9 7 3 5 3 3 4 6 9 11 13 13 8 7 3 5 8 5 3 3 2 2 1 4 6 5 3 1 1 1 1 3 2 2 1 1 9 10 13
26 26 22 15 14 16 19 13 13 6 7 1 2 7 10 12 5 4 5 5 5 5 3 2 3 3 4 3 3 3 5 2 1 1 1 4 4 4 3 4 3 8 12 13
23 23 20 16 14 12 14 16 10 8 4 3 2 4 5 4 5 5 4 4 3 3 2 2 2 2 1 4 6 4 3 3 4 2 3 5 1 6 1 2 3 9 8 11
21 19 18 16 14 14 17 14 10 7 3 2 4 2 4 4 3 5 4 4 2 2 3 2 2 2 1 2 1 3 4 4 3 2 1 5 1 2 2 1 4 5 7 7
20 19 18 16 14 12 21 11 18 20 6 3 4 12 12 6 4 6 3 2 2 3 3 1 3 2 2 3 2 3 2 5 4 5 4 2 2 4 4 1 4 2 6 7
20 19 18 16 12 11 17 13 9 13 4 4 5 4 9 10 12 7 4 0 4 3 2 3 2 3 2 3 3 1 2 2 1 1 1 3 5 4 3 1 2 2 3 5
21 19 19 17 15 16 16 16 13 12 3 4 2 6 6 4 11 15 12 10 7 6 3 3 2 2 2 2 2 3 4 2 3 4 4 1 4 3 3 2 4 2 3 4
23 21 18 18 16 17 20 22 19 11 5 3 3 3 9 8 14 18 18 16 5 3 3 3 1 2 2 1 2 2 4 6 4 5 3 3 1 5 4 5 6 6 4 5
22 21 19 19 18 20 10 4 8 12 7 4 3 1 4 7 14 16 12 8 4 3 3 2 0 1 2 2 2 4 4 4 5 3 4 3 3 5 3 3 4 8 6 6
23 21 19 17 13 8 7 3 6 7 6 3 3 2 3 8 5 3 3 5 2 3 2 2 2 1 3 2 3 3 5 4 3 2 3 3 2 2 3 6 6 8 7 9
24 23 23 20 17 11 9 12 12 7 10 3 3 2 2 3 2 2 2 2 2 3 2 1 2 1 1 3 5 2 4 6 5 5 5 3 6 6 7 7 6 4 5 6
32 31 24 15 7 5 5 14 11 14 7 3 2 4 3 1 2 2 2 1 2 1 1 1 3 2 4 1 2 5 5 3 9 8 8 6 6 4 5 5 6 5 6 7
38 23 7 3 3 20 8 4 4 4 3 3 2 1 3 3 1 1 2 2 1 1 3 3 2 3 4 4 5 5 8 7 5 7 3 2 1 1 3 5 5 6 6 7
6 3 2 11 13 3 3 3 3 2 3 1 1 2 4 1 3 2 1 2 1 1 3 3 2 3 3 6 7 6 9 11 10 10 8 7 5 3 3 4 7 8 8 8
10 19 13 6 3 3 5 1 1 1 2 1 3 3 3 2 1 3 1 3 1 3 3 2 3 2 6 7 7 6 8 10 10 10 9 8 8 7 7 6 7 8 7 9
23 7 3 3 2 5 4 5 0 1 3 3 2 1 3 2 2 3 2 4 4 1 1 3 3 4 6 7 7 7 9 10 10 10 10 9 9 9 8 7 7 6 8 10
3 4 4 3 4 4 4 4 4 3 3 5 3 2 3 2 2 2 3 3 2 1 0 5 3 7 8 6 6 6 5 7 8 8 10 10 10 9 8 8 8 6 8 9
2 3 3 4 2 1 3 2 3 2 2 4 3 3 2 1 3 2 3 3 3 5 4 3 2 8 9 7 6 7 6 8 9 10 10 10 9 8 7 7 8 8 9 10
3 3 3 2 4 3 2 2 3 3 3 2 3 2 2 1 4 3 5 6 5 4 3 2 7 7 6 7 6 10 13 13 12 10 9 8 7 7 6 5 5 6 8 10
3 2 1 2 3 3 3 3 4 1 2 3 3 4 6 1 2 3 4 5 3 2 3 4 4 7 7 10 12 14 14 13 10 9 6 4 5 4 3 4 3 3 3 4

GFSNW_925_spd_135.txt.gz
Wind_Speed
44 37 49 66 75 73 46 9 7 29 37 7 5 10 7 2 6 2 3 5 7 6 6 4 4 6 4 7 8 7 2 3 3 4 1 4 2 4 3 1 1 5 6 5
35 44 62 78 84 77 31 7 4 20 29 10 13 10 11 4 5 5 3 4 3 4 6 6 7 6 1 7 5 8 7 2 2 2 2 0 3 3 3 3 3 9 4 4
35 55 73 83 78 57 29 5 6 4 5 1 18 18 11 6 1 4 4 6 6 7 4 4 7 7 2 4 3 8 6 4 5 5 2 3 3 5 4 3 3 5 10 16
63 70 68 64 52 47 21 2 6 7 13 9 18 14 13 10 5 3 3 3 7 8 5 4 6 5 5 4 8 3 3 5 4 6 9 5 9 10 5 5 8 6 7 14
41 48 42 32 31 24 7 6 8 4 15 13 18 7 10 16 5 4 2 9 11 7 7 5 8 9 5 5 3 3 0 4 4 3 8 9 8 7 6 6 6 9 8 11
29 24 26 26 20 10 3 2 12 7 17 11 13 6 9 11 10 7 7 19 8 9 6 5 10 4 6 9 8 5 5 5 4 2 2 3 5 7 5 4 5 3 4 6
29 24 18 15 16 16 12 5 5 6 11 12 14 12 18 12 5 9 9 13 8 4 13 10 10 10 8 7 3 5 7 6 3 2 2 3 2 4 3 3 3 2 7 10
26 17 16 12 15 12 10 4 5 6 14 11 13 18 16 16 16 13 7 4 5 13 5 4 5 2 3 2 4 6 2 4 3 2 2 1 2 4 1 2 3 3 8 11
17 14 11 16 13 12 10 14 11 4 9 5 4 15 20 14 11 5 5 9 2 7 3 3 4 5 5 6 5 3 5 4 1 3 2 4 1 4 1 5 3 2 7 10
20 14 16 12 6 9 11 9 13 10 5 3 2 5 7 5 6 7 4 4 4 3 2 2 2 3 1 8 9 6 6 3 6 5 3 2 3 1 7 2 1 6 6 8
22 20 16 15 13 9 22 13 14 12 4 5 6 3 4 4 3 6 5 4 2 2 3 2 3 2 3 3 4 6 6 7 4 3 3 4 3 4 3 2 1 3 5 6
19 16 19 16 17 16 25 13 24 23 7 4 13 21 18 6 4 8 3 3 3 3 4 2 3 2 1 4 4 0 3 3 4 5 2 3 3 2 5 3 2 1 4 7
19 17 18 17 20 23 31 21 17 23 6 6 5 6 17 24 14 9 5 1 4 3 1 3 2 3 2 3 2 3 1 2 2 2 2 3 7 6 5 3 3 2 1 4
19 17 17 21 21 21 25 21 14 15 4 4 4 9 9 14 19 15 12 13 8 6 2 3 2 3 1 2 2 1 1 4 4 2 3 4 5 6 7 4 2 1 2 4
21 20 20 21 23 26 31 33 24 14 5 4 4 5 14 18 24 26 24 17 6 3 3 3 2 2 2 2 1 2 4 5 3 3 1 1 2 8 7 6 5 4 3 4
22 23 24 23 18 13 10 4 19 19 14 4 3 2 5 13 24 21 15 9 5 3 3 2 2 1 2 2 2 3 3 2 3 2 3 3 8 7 6 5 5 6 6 4
21 20 18 15 13 13 7 4 5 10 12 3 3 3 2 4 7 5 4 7 3 3 2 2 2 1 2 2 2 1 2 3 4 3 5 4 1 3 6 9 8 7 6 5
23 23 24 21 21 18 14 19 12 11 12 3 4 3 2 4 2 2 2 2 2 4 2 1 2 2 1 3 4 2 4 7 7 6 6 5 10 9 9 8 5 4 4 5
26 23 17 9 10 4 3 10 14 17 8 3 2 4 4 1 2 2 2 2 2 1 1 2 2 2 4 2 2 5 6 2 8 8 9 8 7 7 6 5 5 4 4 5
25 9 8 3 4 10 4 5 4 5 3 3 3 0 3 3 1 2 1 2 2 2 1 2 2 3 3 3 6 6 7 7 8 8 5 5 4 4 5 6 6 6 5 5
4 3 2 8 4 3 3 3 3 2 3 2 2 3 5 2 3 3 0 2 2 2 2 3 3 3 4 7 9 7 8 10 10 11 10 9 7 5 5 6 7 7 7 7
8 17 9 3 4 3 5 2 1 2 2 2 3 3 2 2 2 3 1 2 2 2 5 2 2 1 7 9 9 8 9 11 11 11 11 10 10 8 8 7 7 7 7 7
11 6 4 3 3 6 3 3 0 2 3 3 3 3 3 2 2 3 2 3 2 2 2 2 2 5 8 9 8 8 10 11 12 11 10 11 11 10 9 8 7 7 8 9
3 3 3 2 0 1 3 2 3 2 3 5 3 3 2 2 2 2 4 2 2 2 2 4 3 9 11 9 8 9 7 9 10 10 10 10 10 10 11 11 10 10 10 10
3 3 3 3 1 1 1 2 3 2 4 4 4 3 2 2 3 1 3 4 3 4 4 2 4 11 11 9 8 8 7 8 9 11 11 11 10 10 10 11 11 12 12 12
2 3 4 1 3 2 2 2 3 2 3 2 2 3 2 2 3 3 5 5 5 3 2 3 9 10 9 9 8 10 13 12 13 13 11 10 10 9 8 7 7 9 10 11
3 2 2 2 3 3 2 2 2 3 2 2 2 3 4 3 2 3 4 4 2 2 4 6 8 9 9 11 13 14 15 15 13 12 10 10 8 7 6 5 4 5 6 7

GFSNW_925_spd_138.txt.gz
Wind_Speed
50 51 50 51 43 35 44 14 10 37 46 7 4 6 8 7 16 16 7 9 6 18 23 14 10 12 9 14 16 12 4 2 6 6 5 3 4 7 5 4 5 6 7 11
51 54 58 63 58 51 51 12 4 34 40 10 11 10 9 11 9 11 12 7 8 15 16 9 12 12 4 15 15 13 9 6 6 6 5 5 10 11 6 3 4 11 9 6
53 63 70 73 58 69 47 7 6 3 6 4 22 18 18 14 10 4 3 6 13 14 16 9 16 12 7 12 10 9 5 4 2 5 3 7 9 12 12 7 5 10 12 17
57 68 67 54 61 89 47 5 6 14 15 14 22 25 22 23 12 7 6 3 13 13 8 15 11 13 16 9 11 7 3 4 4 5 4 6 8 10 11 11 13 6 12 16
22 27 49 62 88 80 13 8 8 15 18 20 21 18 20 27 16 13 11 10 14 14 15 8 19 21 15 11 9 10 4 4 6 5 8 10 12 11 11 14 13 15 16 14
37 44 44 60 57 50 4 5 14 15 21 20 19 19 22 23 23 6 14 16 12 11 9 10 16 11 13 15 16 10 8 6 7 3 6 5 8 17 14 4 7 7 6 6
26 35 35 29 20 21 15 20 15 8 15 19 22 27 26 27 23 10 16 20 11 9 23 23 19 16 14 13 9 9 9 9 5 5 6 7 3 3 10 8 7 6 7 7
23 27 31 32 31 30 27 16 6 5 13 15 18 23 19 16 16 14 14 2 16 19 17 12 10 5 6 5 6 7 6 7 4 4 10 2 4 8 6 4 1 5 5 7
19 23 25 30 30 26 26 14 12 6 12 8 20 20 21 17 11 7 6 19 16 7 4 4 7 6 10 8 7 6 6 4 5 5 4 5 5 8 2 4 4 6 2 5
14 24 24 20 20 21 18 12 19 8 7 5 18 15 18 16 17 9 15 12 5 2 4 6 7 5 7 10 13 9 7 6 9 7 6 2 5 5 6 5 5 3 2 3
17 20 18 15 17 20 22 18 21 9 7 9 3 4 9 14 12 12 15 8 2 4 6 5 4 4 4 6 10 13 8 9 6 7 8 8 9 7 4 5 5 3 2 3
18 18 12 13 13 18 21 11 19 21 8 9 22 24 15 6 15 17 6 6 8 4 5 3 3 3 4 9 7 2 6 2 4 6 1 8 7 1 5 3 2 2 2 3
14 13 15 15 18 20 32 28 30 32 11 11 9 8 16 16 12 10 6 2 4 4 3 4 3 3 3 5 4 8 4 4 3 6 4 5 5 5 4 3 2 2 2 3
18 16 24 28 32 35 33 16 12 14 7 6 10 11 10 10 12 14 13 15 9 8 4 3 3 3 2 3 4 3 2 8 5 2 6 4 4 5 5 4 2 3 1 4
18 25 32 36 38 36 39 31 17 14 7 6 9 20 23 20 25 25 23 19 12 7 3 3 3 3 3 3 3 4 5 4 4 2 5 2 3 7 5 4 3 3 2 3
22 21 19 16 14 14 14 5 21 25 21 5 5 3 14 19 24 23 16 9 6 4 3 3 3 2 0 3 3 4 5 4 3 4 5 8 9 7 5 5 4 4 5 5
20 17 15 13 11 16 9 5 3 14 13 4 5 4 5 8 11 7 9 13 5 4 3 3 3 3 1 2 3 6 7 8 8 9 9 7 5 4 5 7 6 4 3 4
28 30 31 31 31 23 14 16 11 12 10 5 4 4 4 5 5 4 3 4 3 4 3 2 3 4 1 2 7 7 8 9 9 7 6 8 12 9 7 5 3 1 3 4
23 21 19 17 13 5 4 10 19 21 9 4 2 7 5 3 3 4 3 2 3 2 2 3 4 3 3 4 7 7 8 5 10 10 10 10 8 7 5 3 2 1 3 3
11 6 7 4 3 4 6 4 3 5 4 3 4 2 5 4 3 2 3 2 2 2 2 4 2 2 6 5 6 7 7 9 11 11 8 7 6 4 3 4 4 4 4 3
5 3 3 3 5 2 3 3 4 2 4 3 3 8 9 2 4 3 1 3 2 2 4 3 3 2 5 8 9 8 8 8 10 10 9 7 5 5 5 5 5 5 5 5
5 13 7 3 3 3 5 3 1 3 3 3 7 6 5 3 1 3 2 3 1 3 5 3 2 3 10 11 10 9 10 11 12 11 11 10 9 8 8 7 7 6 5 4
6 4 3 3 3 4 3 3 3 4 4 5 7 6 3 3 3 4 2 2 2 6 3 2 1 9 9 10 10 10 11 12 13 12 12 12 12 10 10 9 7 6 7 7
3 2 4 4 3 3 3 4 5 4 8 11 8 4 3 2 3 2 3 2 3 4 3 3 4 11 12 10 9 10 10 11 12 11 12 12 13 12 10 10 8 8 9 8
3 2 4 3 3 4 4 5 5 6 9 7 6 4 3 2 3 1 3 4 4 3 2 2 7 13 13 11 10 10 10 10 11 12 12 12 12 12 11 9 9 10 10 9
3 4 4 3 5 4 3 6 8 6 7 4 3 3 2 2 3 3 3 3 3 2 3 5 10 12 12 11 10 12 13 13 13 12 12 12 11 11 11 9 9 9 9 8
3 3 4 3 4 5 4 5 5 5 3 2 2 3 2 3 2 3 3 2 2 4 5 6 10 12 12 13 15 14 15 15 14 13 12 11 9 9 8 8 6 6 7 7